Theta_e
312 312 311 311 311 311 309 304 295 306 310 297 295 295 298 298 298 300 299 299 296 295 295 294 294 294 295 297 299 296 297 295 289 291 294 294 293 292 293 289 286 286 286 288
308 309 311 311 311 311 307 300 300 307 308 291 291 295 297 299 298 298 298 296 298 298 296 294 295 295 297 299 298 298 297 293 287 289 293 294 291 292 293 292 290 286 287 289
310 309 310 310 310 310 306 300 293 303 303 297 295 294 294 294 299 298 300 299 299 297 296 296 295 294 297 297 297 299 301 294 294 290 292 293 290 289 292 293 287 287 288 290
309 310 310 310 310 308 306 299 295 299 294 296 294 296 295 294 294 299 299 297 297 296 294 295 293 294 295 297 298 299 299 294 293 292 292 292 291 289 290 290 290 289 290 289
309 310 309 310 310 309 305 297 296 296 296 297 297 293 293 293 295 296 296 296 298 298 295 297 295 295 294 295 295 297 297 293 293 290 292 292 291 291 290 290 289 290 289 289
310 309 309 309 309 310 305 299 300 297 290 293 295 295 293 294 297 299 299 300 299 298 299 301 302 301 298 297 295 295 295 292 291 288 291 290 290 292 291 292 292 292 289 293
309 309 308 308 309 309 307 302 301 298 290 292 294 295 296 295 296 296 299 302 300 302 303 303 300 300 298 299 298 297 293 291 289 287 288 284 293 295 294 293 292 292 292 293
308 308 308 308 308 309 307 304 305 300 293 294 293 294 295 296 297 297 298 300 305 304 302 298 294 294 295 295 295 296 296 292 286 286 286 289 290 291 291 292 291 294 293 292
308 307 307 307 308 309 309 307 307 304 296 294 296 294 294 293 293 295 298 303 305 304 297 293 288 288 289 290 292 296 295 295 292 285 286 283 292 292 294 295 289 294 295 292
307 307 307 307 307 308 308 307 308 305 296 296 296 294 294 296 294 293 294 299 300 303 295 293 291 291 294 289 288 289 290 290 287 284 286 289 294 293 295 289 292 294 295 294
306 307 307 307 307 308 309 305 309 306 298 297 297 297 297 296 295 292 296 297 298 296 293 293 292 292 293 292 293 290 289 289 288 287 286 286 295 293 290 297 295 296 295 295
306 306 306 307 307 307 308 304 309 309 302 299 301 301 301 302 301 297 296 295 296 298 296 295 294 292 293 292 290 294 290 293 291 292 292 297 297 297 297 298 297 296 295 293
305 306 306 306 306 307 308 306 306 304 298 297 298 298 301 301 302 304 297 297 299 300 301 299 297 291 294 289 290 293 294 296 293 294 296 295 295 297 297 298 298 296 295 291
305 305 306 305 306 307 308 305 307 303 297 289 293 300 298 302 301 301 302 301 300 300 300 294 291 293 297 290 292 293 297 297 293 291 293 295 295 296 297 296 296 293 293 293
305 305 306 305 306 306 307 306 307 304 298 290 292 297 299 301 300 299 300 299 299 297 295 288 293 295 295 291 291 291 295 295 291 290 296 297 296 297 298 296 294 293 292 291
304 305 305 305 306 306 304 296 305 307 304 294 289 296 297 299 301 301 299 299 299 300 296 294 295 297 296 292 289 295 295 298 296 296 297 295 296 297 297 294 294 294 293 291
304 304 304 305 305 306 298 295 301 305 306 291 288 290 295 297 298 298 298 300 299 299 295 292 295 295 295 290 289 293 295 295 295 296 296 294 293 293 295 294 292 292 291 291
304 304 304 305 305 304 301 302 305 305 300 296 287 289 291 298 293 292 295 294 296 294 294 294 295 293 293 290 293 294 294 294 294 293 294 293 292 292 291 291 291 289 287 286
304 304 304 304 301 297 300 304 305 306 299 289 287 286 286 297 292 292 293 294 290 292 291 292 295 290 288 294 294 294 294 293 291 292 292 292 291 290 290 290 289 287 286 285
304 303 296 286 297 303 304 300 294 291 291 293 288 289 288 294 291 291 289 290 288 288 290 292 289 289 291 293 293 294 295 294 293 288 288 289 288 289 289 289 289 288 286 285
296 291 288 297 303 298 293 286 287 287 285 289 290 290 289 295 288 286 290 287 288 285 288 289 287 288 290 291 290 291 292 292 291 292 292 293 292 289 288 287 287 286 285 283
296 295 298 297 292 288 286 285 286 285 284 288 287 288 291 291 294 288 287 286 286 286 289 287 284 288 290 289 288 289 289 289 288 289 288 291 290 290 288 286 284 283 281 280
298 294 288 288 286 282 282 277 283 282 287 288 289 287 290 291 292 287 287 285 284 287 285 285 286 288 289 288 287 287 288 288 287 285 285 286 284 284 285 282 281 281 278 277
289 285 281 283 281 282 283 284 285 288 289 289 289 286 288 288 287 287 284 285 285 281 278 282 286 288 287 286 286 286 285 285 285 284 284 283 282 280 281 283 282 279 278 276
287 287 282 282 285 285 286 287 287 288 292 290 288 288 289 286 285 286 284 281 280 282 282 285 287 287 286 285 286 285 285 284 284 284 284 283 283 282 282 283 282 280 276 276
288 287 284 287 285 285 285 286 288 291 291 290 290 286 285 285 285 283 282 281 281 284 286 286 286 285 285 285 285 285 285 285 285 285 284 284 283 283 282 282 281 277 277 276
287 285 288 287 287 287 287 288 290 292 290 287 287 284 283 286 282 282 284 283 284 284 285 286 286 285 284 285 285 284 285 285 285 285 285 284 284 284 283 282 281 281 281 282
Wind_Speed
9 10 10 11 11 9 4 2 3 3 1 4 1 4 4 2 3 4 5 3 4 3 6 4 3 6 3 1 4 8 2 5 4 3 1 2 3 5 6 4 5 1 0 6
12 12 13 14 12 11 4 3 2 1 1 4 1 2 2 2 4 5 5 3 3 2 3 4 3 6 5 5 2 8 7 1 3 1 1 1 5 5 4 6 3 7 4 3
12 12 13 13 11 7 3 3 3 2 2 1 5 4 0 2 4 3 3 5 1 3 4 1 5 6 3 6 3 5 5 3 6 8 4 4 5 6 7 5 4 6 6 3
11 11 12 11 9 7 3 2 2 3 5 3 2 4 4 6 4 2 1 0 2 3 3 5 2 2 5 2 1 3 1 5 2 3 2 2 3 7 11 8 5 6 2 6
11 12 13 10 8 6 3 3 3 1 3 3 9 0 5 5 4 3 3 3 7 7 7 6 13 3 3 6 2 1 2 3 2 0 2 0 3 4 10 5 3 6 2 6
12 11 12 14 12 4 2 0 1 2 2 4 6 7 4 6 3 4 2 1 2 4 5 4 5 5 2 2 3 4 2 6 3 3 2 2 5 9 10 5 4 6 6 3
13 12 12 13 12 2 2 2 2 2 2 3 4 2 8 6 3 5 1 1 3 4 1 2 5 5 5 5 3 3 5 5 2 3 1 1 1 2 2 4 4 4 3 4
14 13 13 14 11 3 2 1 2 2 2 2 3 3 1 2 4 5 5 8 3 2 4 3 4 3 5 4 4 3 4 4 4 5 4 4 1 5 6 6 5 6 6 8
13 14 15 13 11 5 2 1 1 3 4 3 3 3 0 1 1 3 4 4 3 4 2 3 2 2 5 4 12 1 3 3 3 4 4 7 2 1 1 1 2 7 7 11
13 13 15 14 11 9 2 1 2 2 3 2 3 2 2 1 1 2 4 4 1 1 2 1 3 4 3 6 2 6 5 4 2 1 3 6 3 3 1 1 2 6 9 12
13 14 15 14 13 11 2 1 1 2 2 2 4 5 3 2 1 0 3 1 1 2 3 4 4 3 4 4 6 9 3 3 1 2 1 5 1 4 6 2 2 6 7 9
13 14 15 15 14 13 5 2 1 2 2 1 1 3 2 5 6 4 2 2 2 2 0 2 3 1 1 1 3 2 6 3 4 4 3 2 4 1 2 3 5 6 8 9
14 14 16 16 15 14 7 2 3 3 2 2 2 5 3 3 6 4 2 2 2 3 1 1 1 3 3 1 5 3 3 4 3 6 4 4 3 3 2 2 2 6 10 15
14 15 17 17 16 15 7 2 2 3 2 3 5 1 3 3 7 6 3 1 0 1 1 0 2 3 2 3 2 6 3 5 6 5 4 2 3 3 3 7 10 13 11 11
15 16 16 15 16 14 4 2 1 3 2 3 3 2 3 2 7 8 7 8 4 1 1 1 3 3 4 1 4 6 3 3 5 5 3 3 3 6 7 9 10 12 17 13
16 16 15 15 14 13 4 0 2 4 2 2 2 2 1 1 4 4 8 8 5 3 3 2 2 1 2 4 4 5 4 6 5 2 3 3 7 5 5 10 11 11 12 14
16 17 17 15 16 5 3 4 2 7 3 3 3 3 2 2 2 1 1 3 2 2 2 2 3 2 3 2 3 2 2 3 4 6 6 4 5 3 9 13 13 15 14 12
20 19 17 17 13 7 1 3 5 3 4 2 1 3 3 0 1 1 1 2 1 1 1 2 2 2 1 3 4 4 4 6 5 6 4 7 10 11 12 11 13 14 12 12
23 20 21 6 2 3 2 7 6 1 2 3 3 3 2 2 1 0 1 1 1 1 1 1 2 3 5 6 10 9 5 4 6 7 9 9 10 11 11 11 10 14 11 10
28 12 3 2 4 16 11 3 2 2 2 1 3 2 2 1 1 2 2 1 1 1 1 1 2 4 0 1 3 8 6 9 9 10 5 6 5 7 8 6 6 9 11 12
3 4 3 2 16 4 2 2 2 2 2 3 3 5 4 1 3 2 2 0 1 2 2 3 2 3 4 5 7 6 6 6 2 3 4 4 8 10 9 8 8 10 10 10
7 9 6 3 4 2 4 4 3 5 6 5 5 4 3 2 2 3 1 2 0 4 2 2 3 3 6 8 8 7 7 6 7 6 7 7 8 8 9 8 9 8 9 9
5 6 3 3 2 5 9 9 6 6 5 5 5 4 4 3 2 3 2 3 4 0 2 4 2 5 7 9 8 8 7 10 9 7 9 9 8 8 8 9 6 9 9 7
5 5 6 6 6 6 6 4 5 4 5 9 6 3 3 3 3 3 4 1 2 2 3 6 4 9 8 7 6 8 7 8 9 11 10 11 10 9 9 9 7 8 9 6
4 3 5 6 2 1 1 2 2 2 6 9 5 4 3 2 4 2 3 3 5 6 4 1 5 10 10 9 9 9 8 8 9 8 9 10 9 10 10 8 7 8 8 6
3 3 3 2 3 2 1 3 2 3 6 3 2 4 3 4 4 5 8 7 6 2 2 4 9 11 8 10 11 10 9 9 9 9 9 9 8 9 9 8 7 6 7 7
2 2 2 1 1 2 3 3 3 5 7 3 3 5 5 4 3 5 3 3 2 5 6 6 10 12 11 10 11 9 9 10 10 9 9 9 9 10 9 9 5 6 6 6
Wind_Direction
165 160 158 156 163 148 84 116 103 333 330 87 51 160 202 352 323 344 27 94 64 14 340 294 255 227 274 11 161 156 173 116 160 189 222 189 190 190 165 160 186 86 354 270
159 166 164 168 162 176 135 107 100 7 73 149 158 245 245 353 8 11 18 27 27 353 354 343 7 344 356 334 227 169 186 140 111 32 340 215 218 187 140 106 106 187 169 259
152 154 169 171 177 152 85 116 110 56 72 107 149 124 72 169 341 274 223 268 163 23 22 307 317 336 326 330 307 355 93 147 173 209 190 139 195 177 174 144 158 157 229 269
152 152 164 172 165 134 88 38 172 176 162 184 131 171 193 178 247 250 225 25 168 115 318 342 246 228 308 284 327 340 152 206 131 34 15 193 198 179 180 197 157 189 197 205
163 157 156 165 153 113 78 133 132 27 102 122 172 157 212 172 215 214 257 259 274 268 249 229 287 216 191 246 343 247 308 195 125 58 356 25 225 178 189 198 179 257 202 260
162 164 155 168 163 159 141 192 354 117 349 108 149 212 198 210 228 279 197 357 323 333 278 292 257 211 178 251 275 201 200 144 127 220 15 12 289 219 188 178 172 155 191 193
164 163 158 170 173 151 113 188 126 104 118 141 187 138 193 225 201 226 238 267 48 332 47 341 274 103 103 94 15 250 155 116 59 132 88 219 268 320 223 146 168 167 116 130
166 164 159 172 170 114 109 138 123 97 108 98 96 70 159 217 252 264 250 270 218 114 357 308 307 4 33 11 22 347 266 130 109 154 194 298 182 198 169 176 206 189 150 131
165 166 161 162 180 156 60 42 97 100 123 208 127 114 166 207 224 304 244 270 144 86 88 37 119 187 159 332 332 355 6 31 130 143 160 207 326 266 213 124 268 178 147 154
168 164 162 159 167 164 122 20 4 87 103 193 142 143 143 59 16 273 296 336 77 75 152 222 209 234 217 154 171 337 319 341 101 142 176 260 217 130 34 167 208 155 160 158
171 162 160 159 160 164 139 133 183 80 93 192 180 166 138 111 77 12 326 340 349 74 176 183 193 198 224 188 162 152 287 304 238 141 9 289 130 88 136 229 314 151 143 142
170 163 160 160 161 171 178 106 70 77 88 159 224 230 224 179 182 154 241 294 295 335 125 226 133 116 25 5 222 326 189 221 307 234 239 45 271 155 43 146 177 176 143 137
168 163 162 163 165 171 174 115 129 74 44 330 344 232 222 169 193 182 179 263 294 64 270 279 204 104 140 192 254 260 234 142 150 13 329 337 263 357 253 216 122 102 118 133
165 161 167 175 171 171 162 150 162 98 111 159 275 307 229 172 167 181 216 302 113 139 59 334 172 137 184 133 355 280 273 143 158 211 256 334 279 274 133 99 103 103 103 136
163 158 169 170 167 170 133 83 137 95 138 199 275 273 252 181 168 200 208 224 242 215 170 143 227 109 142 77 104 264 281 207 168 225 203 143 210 153 137 130 120 127 129 117
164 163 166 161 157 145 101 95 240 159 129 53 313 309 304 69 180 217 209 202 206 224 179 201 157 32 95 140 208 214 211 287 289 280 111 71 114 120 115 123 130 124 117 128
166 158 161 155 154 145 139 182 207 147 118 95 294 309 309 257 106 102 132 141 176 205 171 191 166 137 118 120 230 68 54 21 49 103 110 73 9 100 92 108 103 98 97 107
154 153 150 143 115 102 249 12 134 82 107 121 206 261 313 306 130 135 359 142 140 11 160 196 128 120 78 238 213 141 124 86 25 19 71 110 107 96 100 106 113 101 103 116
146 142 123 124 173 154 155 128 65 77 121 183 168 201 215 351 75 13 64 326 119 39 186 192 168 152 210 237 165 154 174 170 137 84 81 92 111 121 121 119 115 117 126 126
135 134 135 134 168 122 135 35 38 20 299 183 196 165 193 60 19 55 17 351 57 16 341 103 180 233 138 187 340 115 142 152 149 119 105 120 116 138 140 123 118 132 137 134
103 134 117 116 152 86 57 151 175 192 233 201 178 182 144 306 109 131 17 299 89 206 187 227 219 250 187 133 96 88 105 105 53 70 117 126 147 145 133 120 118 123 126 124
136 111 97 87 79 95 157 187 190 200 224 171 159 189 135 134 118 109 157 188 115 223 150 169 234 236 122 121 111 93 89 98 79 61 86 85 106 119 114 111 110 105 109 122
87 82 94 107 140 167 191 187 197 195 171 166 174 146 128 121 106 85 169 176 216 120 195 229 245 141 135 126 115 92 87 78 73 72 70 79 81 69 90 104 98 110 105 109
88 139 147 197 180 217 193 185 165 189 165 154 131 102 132 137 118 131 190 151 179 168 236 231 178 156 125 114 110 109 94 90 87 76 82 84 87 89 87 89 115 119 129 136
107 142 190 185 190 166 208 155 150 170 141 143 111 89 109 115 123 187 132 170 226 216 229 126 130 123 125 120 116 110 102 99 88 96 95 95 98 101 101 104 110 111 121 128
140 148 140 98 107 221 234 188 169 140 135 85 74 113 141 186 164 168 209 177 215 173 113 105 116 110 116 126 121 109 103 102 106 108 110 112 117 118 111 102 108 126 131 130
106 97 66 117 97 216 184 163 157 131 145 174 138 162 180 123 187 207 197 199 112 123 114 114 128 131 132 114 107 110 113 114 111 109 109 109 112 113 115 116 127 134 143 144